Location: Caltech
(34.1382°N, 118.1253°W)
Time: 18:16:45
(UTC-07:00)

Cosmos 1408 Rocket - Visible Passes

Search period start: 25 April 2015 00:00
Search period end: 05 May 2015 00:00
Orbit: 601 x 633 km, 82.6° (Epoch: 24 April)

Date Brightness Start Highest point End Pass type
(mag) Time Alt. Az. Time Alt. Az. Time Alt. Az.
25 Apr 6.6 02:22:47 12° NE 02:22:47 12° NE 02:23:21 10° NE visible
25 Apr 5.4 03:59:54 20° NW 03:59:54 20° NW 04:01:41 10° NNW visible
26 Apr 6.2 02:39:32 18° NE 02:39:32 18° NE 02:40:52 10° NNE visible
26 Apr 5.8 04:16:39 12° NW 04:16:39 12° NW 04:17:20 10° NW visible
27 Apr 5.8 02:56:16 22° NNE 02:56:16 22° NNE 02:57:51 10° N visible
28 Apr 5.7 03:12:59 21° N 03:12:59 21° N 03:14:30 10° N visible
29 Apr 5.8 03:29:41 16° NNW 03:29:41 16° NNW 03:30:46 10° NNW visible
30 Apr 6.5 02:09:14 14° NNE 02:09:14 14° NNE 02:09:55 10° NNE visible
30 Apr 6.1 03:46:21 10° NW 03:46:21 10° NW 03:46:25 10° NW visible
01 May 6.2 02:25:53 17° NNE 02:25:53 17° NNE 02:26:54 10° NNE visible
02 May 6.1 02:42:32 17° N 02:42:32 17° N 02:43:32 10° N visible
03 May 6.1 02:59:10 13° NNW 02:59:10 13° NNW 02:59:49 10° NNW visible
04 May 6.7 01:38:40 11° NNE 01:38:40 11° NNE 01:38:56 10° NNE visible
